FW8671 Weather Reports


time (UTC)temp
F
wind
direction
speed
knots
gust
knots
rain 1hr
in
rain 24hr
in
rain mn
in
humidity
%
barometer
mb
20260905224708 76 324 0.0 0.0 0.00 0.01 0.01 67 1012.2
20260905223641 77 324 0.0 2.6 0.00 0.01 0.01 66 1012.1
20260905221509 77 324 0.9 3.5 0.00 0.01 0.01 66 1012.0
20260905220505 77 324 0.9 3.5 0.00 0.01 0.01 66 1012.0
20260905215436 77 324 0.9 4.3 0.00 0.01 0.01 65 1012.0
20260905213250 78 324 1.7 7.0 0.00 0.01 0.01 64 1011.8
20260905212230 78 324 1.7 8.7 0.00 0.01 0.01 63 1011.8
20260905211206 78 324 1.7 8.7 0.00 0.01 0.01 62 1011.6
20260905210146 79 324 1.7 6.1 0.00 0.01 0.01 62 1011.4
20260905205155 79 324 1.7 4.3 0.00 0.01 0.01 61 1011.4
20260905204211 80 317 1.7 6.1 0.00 0.01 0.01 59 1011.3
20260905203138 80 342 2.6 7.8 0.00 0.01 0.01 60 1011.3
20260905202113 80 16 3.5 8.7 0.00 0.01 0.01 58 1011.3
20260905201051 80 342 3.5 12.2 0.00 0.01 0.01 58 1011.2
20260905200115 81 30 1.7 12.2 0.00 0.01 0.01 58 1011.2
20260905195139 80 52 1.7 7.8 0.00 0.01 0.01 60 1011.3
20260905194144 79 49 2.6 7.8 0.00 0.01 0.01 62 1011.3
20260905192020 78 34 1.7 6.1 0.00 0.01 0.01 63 1011.5
20260905185927 79 342 1.7 6.1 0.00 0.01 0.01 61 1011.7
20260905184855 79 26 1.7 7.0 0.00 0.01 0.01 62 1011.7
20260905183827 79 11 1.7 8.7 0.00 0.01 0.01 64 1011.7
20260905182757 78 82 2.6 8.7 0.00 0.01 0.01 65 1011.8
20260905181747 78 342 2.6 7.8 0.00 0.01 0.01 65 1011.8
20260905180751 78 41 3.5 7.8 0.00 0.01 0.01 64 1011.9
20260905174629 77 342 0.9 3.5 0.00 0.01 0.01 69 1012.2
20260905173616 76 51 1.7 7.0 0.00 0.01 0.01 69 1012.1
20260905172601 76 35 2.6 7.0 0.00 0.01 0.01 70 1012.2
20260905171604 76 39 1.7 12.2 0.00 0.01 0.01 68 1012.2
20260905170548 77 47 2.6 12.2 0.00 0.01 0.01 66 1012.2
20260905164450 77 49 1.7 7.8 0.00 0.01 0.01 67 1012.3
20260905163449 76 28 1.7 8.7 0.00 0.01 0.01 69 1012.4
20260905162441 75 28 3.5 8.7 0.00 0.01 0.01 70 1012.3
20260905161501 75 17 2.6 7.8 0.00 0.01 0.01 70 1012.3
20260905160505 75 43 3.5 9.6 0.00 0.01 0.01 71 1012.2
20260905154333 75 23 3.5 9.6 0.00 0.01 0.01 71 1012.2
20260905153329 75 0 3.5 9.6 0.00 0.01 0.01 69 1012.3
20260905152311 76 0 3.5 9.6 0.00 0.01 0.01 69 1012.2
20260905151302 75 75 4.3 10.4 0.00 0.01 0.01 70 1012.3
20260905150309 75 77 4.3 13.0 0.00 0.01 0.01 69 1012.2
20260905145255 74 75 5.2 13.0 0.00 0.01 0.01 69 1012.2
20260905143109 76 324 4.3 13.0 0.00 0.01 0.01 69 1012.2
20260905140929 75 324 3.5 12.2 0.00 0.01 0.01 72 1011.9
20260905134817 74 324 3.5 9.6 0.00 0.01 0.01 72 1012.1
20260905133842 75 324 3.5 9.6 0.00 0.01 0.01 72 1012.0
20260905132830 74 324 4.3 11.3 0.00 0.01 0.01 73 1012.1
20260905131758 74 324 4.3 12.2 0.00 0.01 0.01 73 1012.2
20260905130754 74 324 2.6 12.2 0.00 0.01 0.01 73 1012.3
20260905125735 74 324 3.5 10.4 0.00 0.01 0.01 75 1012.3
20260905124800 73 324 2.6 8.7 0.00 0.01 0.01 75 1012.4
20260905123744 73 324 2.6 7.0 0.00 0.01 0.01 75 1012.4
20260905122733 72 324 2.6 9.6 0.00 0.01 0.01 76 1012.4
20260905121659 72 324 3.5 10.4 0.00 0.01 0.01 77 1012.5
20260905120704 72 324 2.6 10.4 0.00 0.01 0.01 77 1012.5
20260905115657 71 323 1.7 9.6 0.00 0.01 0.01 78 1012.4
20260905114722 70 323 3.5 9.6 0.00 0.01 0.01 79 1012.2
20260905113715 70 324 2.6 7.8 0.00 0.01 0.01 80 1012.1
20260905112711 69 324 1.7 7.0 0.00 0.01 0.01 81 1012.0
20260905111711 69 324 0.9 6.1 0.00 0.01 0.01 82 1012.0
20260905105558 69 324 0.9 4.3 0.00 0.01 0.01 82 1011.7
20260905104536 69 324 0.9 3.5 0.00 0.01 0.01 81 1011.6
20260905103527 69 324 0.0 0.9 0.00 0.02 0.01 81 1011.5
20260905102531 69 324 0.0 1.7 0.00 0.02 0.01 81 1011.5
20260905101529 69 324 0.0 0.9 0.00 0.02 0.01 80 1011.4
20260905100548 70 324 0.0 0.0 0.00 0.02 0.01 80 1011.5
20260905095605 70 324 0.0 0.9 0.00 0.02 0.01 80 1011.5
20260905094535 70 324 0.0 0.9 0.00 0.02 0.01 79 1011.4
20260905093541 70 324 0.0 1.7 0.00 0.02 0.01 78 1011.3
20260905092552 71 324 0.9 6.1 0.00 0.02 0.01 78 1011.4
20260905090510 71 324 1.7 7.8 0.00 0.01 0.01 77 1011.3
20260905085529 71 324 2.6 7.0 0.00 0.01 0.00 76 1011.3
20260905084517 72 324 2.6 7.0 0.00 0.01 0.00 76 1011.3
20260905083505 72 324 1.7 6.1 0.00 0.01 0.00 75 1011.2
20260905082438 72 324 1.7 7.0 0.00 0.01 0.00 75 1011.2
20260905081450 72 324 1.7 7.0 0.00 0.01 0.00 75 1011.2
20260905080434 72 324 1.7 9.6 0.00 0.01 0.00 75 1011.2
20260905074327 72 324 1.7 9.6 0.00 0.01 0.00 75 1011.1
20260905073334 72 324 1.7 9.6 0.00 0.01 0.00 74 1011.1
20260905072324 73 324 1.7 7.8 0.00 0.01 0.00 74 1011.3
20260905071330 73 323 2.6 7.8 0.00 0.01 0.00 73 1011.2
20260905070350 73 324 3.5 11.3 0.00 0.01 0.00 73 1011.3
20260905065410 73 324 2.6 12.2 0.00 0.01 0.00 72 1011.3
20260905064358 73 324 3.5 12.2 0.00 0.01 0.00 73 1011.5
20260905063329 73 324 1.7 9.6 0.00 0.01 0.00 74 1011.6
20260905062329 73 324 2.6 9.6 0.00 0.01 0.00 75 1011.5
20260905061342 73 324 2.6 6.1 0.00 0.01 0.00 77 1011.7
20260905060346 73 324 1.7 4.3 0.00 0.01 0.00 77 1011.6
20260905055405 73 324 0.9 4.3 0.00 0.01 0.00 77 1011.7
20260905054405 73 324 1.7 6.1 0.00 0.01 0.00 77 1011.7
20260905053401 73 324 0.9 6.1 0.00 0.01 0.00 79 1011.8
20260905052412 73 324 0.9 3.5 0.00 0.01 0.00 80 1012.0
20260905051346 73 324 1.7 4.3 0.00 0.01 0.00 80 1012.0
20260905050352 74 324 1.7 4.3 0.00 0.01 0.00 79 1012.0
20260905045406 74 324 1.7 4.3 0.00 0.01 0.00 79 1012.0
20260905044422 74 324 1.7 4.3 0.00 0.01 0.00 79 1012.1
20260905043441 74 324 1.7 7.0 0.00 0.01 0.00 79 1012.2
20260905042446 74 324 2.6 7.0 0.00 0.01 0.00 79 1012.2
20260905041454 74 324 2.6 4.3 0.00 0.01 0.00 79 1012.2
20260905040507 74 324 1.7 4.3 0.00 0.01 0.00 79 1012.3
20260905035530 74 324 0.0 4.3 0.00 0.01 0.01 78 1012.5
20260905034505 74 324 0.9 4.3 0.00 0.01 0.01 78 1012.4
20260905033459 73 324 0.9 3.5 0.00 0.01 0.01 78 1012.3
20260905032511 73 324 0.9 2.6 0.00 0.01 0.01 77 1012.1
20260905031459 74 324 0.9 2.6 0.00 0.01 0.01 77 1012.1
20260905025313 74 324 0.0 0.0 0.00 0.01 0.01 76 1012.1
20260905024322 74 324 0.0 0.0 0.00 0.01 0.01 77 1012.0
20260905023329 74 324 0.0 0.0 0.00 0.01 0.01 76 1012.2
20260905022347 74 324 0.0 0.0 0.00 0.01 0.01 76 1012.1
20260905021331 75 324 0.0 0.0 0.00 0.01 0.01 75 1012.2
20260905020354 75 324 0.0 0.0 0.00 0.01 0.01 74 1012.3
20260905015324 76 324 0.0 0.9 0.00 0.01 0.01 74 1012.4
20260905014325 76 324 0.0 1.7 0.00 0.01 0.01 73 1012.3
20260905013316 76 324 0.9 3.5 0.00 0.01 0.01 73 1012.4
20260905012316 76 323 0.9 3.5 0.00 0.01 0.01 73 1012.3
20260905011310 77 324 0.0 2.6 0.00 0.01 0.01 73 1012.2
20260905010303 77 324 0.0 0.0 0.00 0.01 0.01 73 1012.3
20260905005307 77 324 0.0 0.0 0.00 0.01 0.01 73 1012.4
20260905004248 78 324 0.0 0.0 0.00 0.01 0.01 73 1012.4
20260905002136 79 323 0.0 0.0 0.00 0.01 0.01 71 1012.2
20260904235958 80 324 0.0 0.0 0.00 0.01 0.01 68 1012.0
20260904234949 80 324 0.0 0.0 0.00 0.01 0.01 67 1012.2
20260904234000 80 323 0.9 2.6 0.00 0.01 0.01 66 1012.2
20260904231844 81 309 0.9 2.6 0.00 0.01 0.01 65 1011.9
20260904225634 83 312 0.9 6.1 0.00 0.01 0.01 62 1011.9